ELY541 LLBG-LGAV

Flight info

Callsign ELY541
Flight time 1h 48m
Altitude 38000
Route SUVAS N128 OTHON DCT USINI UL995 VARIX
Aircraft B738/M-SDE2E3FGHIJ1LORVWXY/LB1

Departure

Time 2026-05-06 15:38
Airport Ben Gurion International Airport (LLBG)

Arrival

Time 2026-05-06 17:27
Airport Athens Eleftherios Venizelos International Airport (LGAV)
Time Latitude Longitude Altitude Speed Heading
2026-05-06 15:08 32.00574 34.87232 115 ft 0 kts 221°
2026-05-06 15:26 32.00575 34.87233 116 ft 2 kts 221°
2026-05-06 15:26 32.00593 34.87254 113 ft 4 kts 226°
2026-05-06 15:26 32.00608 34.87271 113 ft 4 kts 223°
2026-05-06 15:26 32.00627 34.87292 112 ft 4 kts 203°
2026-05-06 15:27 32.00648 34.87296 114 ft 4 kts 182°
2026-05-06 15:27 32.00675 34.87297 115 ft 4 kts 181°
2026-05-06 15:27 32.00702 34.87297 112 ft 4 kts 181°
2026-05-06 15:27 32.00727 34.87295 112 ft 4 kts 154°
2026-05-06 15:28 32.00742 34.87276 113 ft 4 kts 94°
2026-05-06 15:28 32.00739 34.87245 112 ft 4 kts 77°
2026-05-06 15:28 32.00737 34.87236 113 ft 1 kts 78°
2026-05-06 15:30 32.00739 34.87243 113 ft 2 kts 76°
2026-05-06 15:30 32.00744 34.87273 113 ft 7 kts 81°
2026-05-06 15:30 32.00788 34.87331 116 ft 13 kts 33°
2026-05-06 15:31 32.00818 34.87413 114 ft 8 kts 125°
2026-05-06 15:31 32.00779 34.87485 116 ft 14 kts 122°
2026-05-06 15:31 32.00714 34.87610 116 ft 22 kts 121°
2026-05-06 15:32 32.00608 34.87928 117 ft 15 kts 24°
2026-05-06 15:32 32.00650 34.87957 115 ft 0 kts 38°
2026-05-06 15:33 32.00656 34.87962 118 ft 3 kts 38°
2026-05-06 15:33 32.00687 34.87988 118 ft 8 kts 31°
2026-05-06 15:33 32.00756 34.88037 119 ft 14 kts 32°
2026-05-06 15:33 32.00856 34.88109 119 ft 19 kts 32°
2026-05-06 15:34 32.00978 34.88197 118 ft 23 kts 31°
2026-05-06 15:34 32.01122 34.88299 118 ft 25 kts 31°
2026-05-06 15:34 32.01272 34.88414 122 ft 25 kts 41°
2026-05-06 15:34 32.01390 34.88558 122 ft 24 kts 52°
2026-05-06 15:35 32.01468 34.88722 123 ft 23 kts 79°
2026-05-06 15:35 32.01506 34.88899 126 ft 22 kts 81°
2026-05-06 15:35 32.01532 34.89074 126 ft 21 kts 80°
2026-05-06 15:35 32.01560 34.89157 128 ft 14 kts 29°
2026-05-06 15:36 32.01599 34.89155 127 ft 6 kts 349°
2026-05-06 15:36 32.01659 34.89144 125 ft 1 kts 351°
2026-05-06 15:36 32.01660 34.89144 125 ft 1 kts 351°
2026-05-06 15:36 32.01692 34.89138 124 ft 9 kts 351°
2026-05-06 15:37 32.01743 34.89103 126 ft 0 kts 295°
2026-05-06 15:37 32.01743 34.89084 128 ft 0 kts 265°
2026-05-06 15:37 32.01735 34.89019 125 ft 34 kts 261°
2026-05-06 15:38 32.01650 34.88463 123 ft 103 kts 260°
2026-05-06 15:38 32.01498 34.87408 147 ft 156 kts 262°
2026-05-06 15:38 32.01285 34.86116 747 ft 163 kts 263°
2026-05-06 15:38 32.01092 34.84817 1471 ft 166 kts 261°
2026-05-06 15:39 32.00817 34.83450 2023 ft 182 kts 258°
2026-05-06 15:39 32.00488 34.81894 2293 ft 209 kts 258°
2026-05-06 15:39 32.00117 34.80151 2568 ft 228 kts 258°
2026-05-06 15:39 31.99719 34.78278 2898 ft 249 kts 257°
2026-05-06 15:40 31.99294 34.76235 3512 ft 257 kts 260°
2026-05-06 15:40 31.99362 34.74156 4369 ft 257 kts 285°
2026-05-06 15:40 31.99963 34.72146 5067 ft 265 kts 290°
2026-05-06 15:40 32.00614 34.70107 5872 ft 266 kts 290°
2026-05-06 15:41 32.01262 34.68061 6716 ft 265 kts 290°
2026-05-06 15:41 32.01905 34.66014 7378 ft 271 kts 290°
2026-05-06 15:41 32.02540 34.63954 7900 ft 267 kts 287°
2026-05-06 15:41 32.02840 34.61776 7927 ft 271 kts 273°
2026-05-06 15:42 32.02931 34.59557 7969 ft 271 kts 273°
2026-05-06 15:42 32.03020 34.57349 8000 ft 271 kts 273°
2026-05-06 15:42 32.03120 34.55121 8012 ft 273 kts 273°
2026-05-06 15:42 32.03230 34.52886 8013 ft 274 kts 274°
2026-05-06 15:43 32.03342 34.50661 8141 ft 277 kts 274°
2026-05-06 15:43 32.03460 34.48397 8936 ft 274 kts 274°
2026-05-06 15:43 32.03577 34.46154 9801 ft 274 kts 274°
2026-05-06 15:43 32.03697 34.43891 10394 ft 282 kts 274°
2026-05-06 15:44 32.03833 34.41494 10556 ft 304 kts 274°
2026-05-06 15:44 32.03982 34.38922 10717 ft 325 kts 274°
2026-05-06 15:44 32.04137 34.36234 11040 ft 337 kts 274°
2026-05-06 15:44 32.04297 34.33451 11630 ft 341 kts 274°
2026-05-06 15:45 32.04456 34.30661 12355 ft 341 kts 274°
2026-05-06 15:45 32.04614 34.27866 13074 ft 341 kts 273°
2026-05-06 15:45 32.04773 34.25066 13769 ft 343 kts 274°
2026-05-06 15:45 32.05272 34.22310 14356 ft 348 kts 290°
2026-05-06 15:46 32.06394 34.19798 14970 ft 352 kts 298°
2026-05-06 15:46 32.07671 34.17320 15594 ft 355 kts 299°
2026-05-06 15:46 32.08973 34.14832 16223 ft 358 kts 299°
2026-05-06 15:46 32.10280 34.12317 16808 ft 361 kts 298°
2026-05-06 15:47 32.11586 34.09777 17410 ft 364 kts 298°
2026-05-06 15:47 32.12881 34.07238 18011 ft 367 kts 298°
2026-05-06 15:47 32.14196 34.04647 18573 ft 369 kts 298°
2026-05-06 15:47 32.15516 34.02041 19107 ft 371 kts 298°
2026-05-06 15:48 32.16843 33.99420 19644 ft 373 kts 298°
2026-05-06 15:48 32.18272 33.96838 20177 ft 377 kts 301°
2026-05-06 15:48 32.19789 33.94301 20714 ft 380 kts 302°
2026-05-06 15:48 32.21346 33.91765 21236 ft 382 kts 302°
2026-05-06 15:49 32.22910 33.89224 21751 ft 384 kts 302°
2026-05-06 15:49 32.24485 33.86655 22227 ft 387 kts 301°
2026-05-06 15:49 32.26061 33.84069 22700 ft 389 kts 301°
2026-05-06 15:49 32.27623 33.81492 23303 ft 388 kts 301°
2026-05-06 15:50 32.29194 33.78892 23798 ft 390 kts 301°
2026-05-06 15:50 32.30776 33.76265 24152 ft 393 kts 301°
2026-05-06 15:50 32.32365 33.73621 24524 ft 395 kts 301°
2026-05-06 15:50 32.33958 33.70965 24912 ft 397 kts 301°
2026-05-06 15:51 32.35559 33.68295 25302 ft 399 kts 301°
2026-05-06 15:51 32.37164 33.65615 25672 ft 401 kts 302°
2026-05-06 15:51 32.38780 33.62916 26038 ft 403 kts 302°
2026-05-06 15:51 32.40401 33.60205 26384 ft 405 kts 302°
2026-05-06 15:52 32.42033 33.57476 26731 ft 407 kts 302°
2026-05-06 15:52 32.43673 33.54729 27073 ft 409 kts 302°
2026-05-06 15:52 32.45316 33.51978 27413 ft 410 kts 302°
2026-05-06 15:52 32.46965 33.49212 27732 ft 412 kts 302°
2026-05-06 15:53 32.48623 33.46430 28052 ft 414 kts 302°
2026-05-06 15:53 32.50291 33.43630 28360 ft 416 kts 302°
2026-05-06 15:53 32.51963 33.40820 28669 ft 418 kts 302°
2026-05-06 15:53 32.53620 33.38035 28967 ft 420 kts 302°
2026-05-06 15:54 32.55325 33.35166 29284 ft 421 kts 302°
2026-05-06 15:54 32.56993 33.32357 29696 ft 420 kts 302°
2026-05-06 15:54 32.58669 33.29534 30170 ft 417 kts 302°
2026-05-06 15:54 32.60337 33.26724 30576 ft 415 kts 302°
2026-05-06 15:55 32.61999 33.23920 30916 ft 414 kts 302°
2026-05-06 15:55 32.63653 33.21125 31241 ft 413 kts 302°
2026-05-06 15:55 32.65286 33.18365 31589 ft 412 kts 302°
2026-05-06 15:55 32.66930 33.15584 31967 ft 410 kts 302°
2026-05-06 15:56 32.68567 33.12813 32337 ft 408 kts 302°
2026-05-06 15:56 32.70196 33.10052 32676 ft 407 kts 302°
2026-05-06 15:56 32.71822 33.07295 32994 ft 406 kts 302°
2026-05-06 15:56 32.73436 33.04558 33524 ft 401 kts 303°
2026-05-06 15:57 32.75005 33.01894 34001 ft 396 kts 303°
2026-05-06 15:57 32.76583 32.99214 34244 ft 397 kts 303°
2026-05-06 15:57 32.78170 32.96513 34382 ft 399 kts 303°
2026-05-06 15:57 32.79764 32.93799 34575 ft 400 kts 303°
2026-05-06 15:58 32.81362 32.91078 34816 ft 399 kts 303°
2026-05-06 15:58 32.82948 32.88375 35057 ft 399 kts 303°
2026-05-06 15:58 32.84535 32.85668 35247 ft 399 kts 303°
2026-05-06 15:58 32.86107 32.82985 35429 ft 400 kts 303°
2026-05-06 15:59 32.87704 32.80258 35650 ft 400 kts 303°
2026-05-06 15:59 32.89295 32.77540 35863 ft 400 kts 302°
2026-05-06 15:59 32.90882 32.74825 36051 ft 400 kts 302°
2026-05-06 15:59 32.92478 32.72094 36250 ft 400 kts 302°
2026-05-06 16:00 32.94065 32.69375 36444 ft 400 kts 302°
2026-05-06 16:00 32.95654 32.66653 36648 ft 400 kts 302°
2026-05-06 16:00 32.97246 32.63923 36827 ft 400 kts 302°
2026-05-06 16:00 32.98833 32.61197 37023 ft 401 kts 302°
2026-05-06 16:01 33.00421 32.58471 37217 ft 400 kts 302°
2026-05-06 16:01 33.01990 32.55773 37373 ft 401 kts 302°
2026-05-06 16:01 33.03585 32.53028 37522 ft 402 kts 302°
2026-05-06 16:01 33.05181 32.50282 37712 ft 401 kts 302°
2026-05-06 16:02 33.06770 32.47545 37887 ft 401 kts 302°
2026-05-06 16:02 33.08359 32.44805 38034 ft 402 kts 302°
2026-05-06 16:02 33.11555 32.39287 38072 ft 405 kts 302°
2026-05-06 16:03 33.14726 32.33807 38075 ft 402 kts 302°
2026-05-06 16:03 33.17897 32.28320 38093 ft 399 kts 302°
2026-05-06 16:04 33.21040 32.22870 38076 ft 398 kts 302°
2026-05-06 16:04 33.24173 32.17430 38076 ft 396 kts 302°
2026-05-06 16:05 33.27268 32.12047 38080 ft 396 kts 302°
2026-05-06 16:05 33.30406 32.06583 38087 ft 396 kts 302°
2026-05-06 16:06 33.33509 32.01170 38080 ft 398 kts 302°
2026-05-06 16:06 33.36651 31.95683 38079 ft 400 kts 302°
2026-05-06 16:07 33.39795 31.90183 38076 ft 401 kts 302°
2026-05-06 16:07 33.42955 31.84647 38077 ft 403 kts 302°
2026-05-06 16:08 33.46098 31.79135 38079 ft 404 kts 302°
2026-05-06 16:08 33.49275 31.73556 38081 ft 405 kts 302°
2026-05-06 16:09 33.52458 31.67964 38076 ft 406 kts 302°
2026-05-06 16:09 33.55619 31.62400 38076 ft 406 kts 302°
2026-05-06 16:10 33.58800 31.56792 38078 ft 406 kts 302°
2026-05-06 16:10 33.61969 31.51196 38076 ft 405 kts 302°
2026-05-06 16:11 33.65132 31.45601 38086 ft 405 kts 302°
2026-05-06 16:11 33.68286 31.40014 38077 ft 404 kts 302°
2026-05-06 16:12 33.71419 31.34455 38080 ft 403 kts 302°
2026-05-06 16:12 33.74563 31.28869 38074 ft 403 kts 302°
2026-05-06 16:13 33.77697 31.23292 38063 ft 402 kts 302°
2026-05-06 16:13 33.80825 31.17716 38074 ft 402 kts 302°
2026-05-06 16:14 33.83951 31.12136 38083 ft 402 kts 302°
2026-05-06 16:14 33.87052 31.06592 38085 ft 402 kts 302°
2026-05-06 16:15 33.90172 31.01003 38079 ft 402 kts 302°
2026-05-06 16:15 33.93295 30.95404 38082 ft 402 kts 302°
2026-05-06 16:16 33.96411 30.89808 38085 ft 402 kts 302°
2026-05-06 16:16 33.99504 30.84239 38086 ft 402 kts 302°
2026-05-06 16:17 34.02619 30.78621 38084 ft 403 kts 302°
2026-05-06 16:17 34.05730 30.73000 38076 ft 403 kts 302°
2026-05-06 16:18 34.08842 30.67370 38086 ft 403 kts 302°
2026-05-06 16:18 34.11953 30.61733 38081 ft 403 kts 302°
2026-05-06 16:19 34.15045 30.56121 38079 ft 403 kts 302°
2026-05-06 16:19 34.18150 30.50477 38079 ft 403 kts 302°
2026-05-06 16:20 34.20727 30.45787 38077 ft 403 kts 302°
2026-05-06 16:20 34.23825 30.40139 38074 ft 403 kts 302°
2026-05-06 16:21 34.26917 30.34493 38075 ft 402 kts 302°
2026-05-06 16:21 34.30006 30.28845 38078 ft 402 kts 302°
2026-05-06 16:22 34.33073 30.23227 38086 ft 402 kts 302°
2026-05-06 16:22 34.36148 30.17584 38076 ft 401 kts 302°
2026-05-06 16:23 34.39218 30.11942 38081 ft 401 kts 302°
2026-05-06 16:23 34.42284 30.06300 38083 ft 401 kts 302°
2026-05-06 16:24 34.45364 30.00671 38071 ft 401 kts 305°
2026-05-06 16:24 34.49120 29.95662 38082 ft 402 kts 313°
2026-05-06 16:25 34.53057 29.90837 38073 ft 402 kts 313°
2026-05-06 16:25 34.56973 29.86007 38085 ft 402 kts 312°
2026-05-06 16:26 34.60885 29.81152 38084 ft 402 kts 312°
2026-05-06 16:26 34.64792 29.76285 38073 ft 402 kts 312°
2026-05-06 16:27 34.68698 29.71412 38076 ft 403 kts 312°
2026-05-06 16:27 34.72603 29.66532 38080 ft 403 kts 312°
2026-05-06 16:28 34.76504 29.61649 38074 ft 403 kts 312°
2026-05-06 16:28 34.80380 29.56792 38083 ft 403 kts 312°
2026-05-06 16:29 34.84282 29.51894 38108 ft 403 kts 312°
2026-05-06 16:29 34.88181 29.46994 38088 ft 403 kts 312°
2026-05-06 16:30 34.91420 29.42919 38081 ft 403 kts 312°
2026-05-06 16:30 34.95965 29.37190 38082 ft 402 kts 312°
2026-05-06 16:31 34.99844 29.32294 38073 ft 401 kts 312°
2026-05-06 16:31 35.03711 29.27405 38077 ft 400 kts 312°
2026-05-06 16:32 35.07575 29.22513 38067 ft 400 kts 312°
2026-05-06 16:32 35.11426 29.17631 38081 ft 399 kts 312°
2026-05-06 16:33 35.15276 29.12743 38081 ft 399 kts 312°
2026-05-06 16:34 35.21046 29.05402 38084 ft 400 kts 312°
2026-05-06 16:34 35.24887 29.00508 38071 ft 400 kts 312°
2026-05-06 16:35 35.28737 28.95595 38061 ft 400 kts 312°
2026-05-06 16:35 35.32584 28.90678 38073 ft 400 kts 312°
2026-05-06 16:36 35.36404 28.85789 38073 ft 400 kts 312°
2026-05-06 16:36 35.40250 28.80859 38072 ft 400 kts 312°
2026-05-06 16:37 35.44094 28.75924 38072 ft 400 kts 312°
2026-05-06 16:37 35.47943 28.70976 38071 ft 401 kts 312°
2026-05-06 16:38 35.51790 28.66024 38087 ft 401 kts 312°
2026-05-06 16:38 35.55634 28.61066 38069 ft 401 kts 312°
2026-05-06 16:39 35.59482 28.56098 38067 ft 401 kts 312°
2026-05-06 16:39 35.63328 28.51123 38068 ft 401 kts 312°
2026-05-06 16:40 35.67167 28.46151 38064 ft 401 kts 312°
2026-05-06 16:40 35.71001 28.41177 38062 ft 400 kts 312°
2026-05-06 16:41 35.74830 28.36204 38055 ft 400 kts 312°
2026-05-06 16:41 35.78656 28.31226 38061 ft 400 kts 312°
2026-05-06 16:42 35.82474 28.26251 38061 ft 399 kts 312°
2026-05-06 16:42 35.86262 28.21308 38073 ft 399 kts 312°
2026-05-06 16:43 35.90066 28.16336 38064 ft 399 kts 312°
2026-05-06 16:43 35.93895 28.11325 38060 ft 399 kts 312°
2026-05-06 16:44 35.97669 28.06378 38052 ft 398 kts 312°
2026-05-06 16:44 36.01462 28.01399 38061 ft 398 kts 312°
2026-05-06 16:45 36.05261 27.96403 38060 ft 398 kts 312°
2026-05-06 16:45 36.09055 27.91408 38064 ft 398 kts 312°
2026-05-06 16:46 36.12854 27.86398 38057 ft 399 kts 312°
2026-05-06 16:46 36.16654 27.81378 38062 ft 400 kts 312°
2026-05-06 16:47 36.20448 27.76360 38058 ft 402 kts 312°
2026-05-06 16:47 36.24270 27.71296 38057 ft 402 kts 312°
2026-05-06 16:48 36.28081 27.66240 38057 ft 402 kts 312°
2026-05-06 16:48 36.31915 27.61145 38055 ft 403 kts 312°
2026-05-06 16:49 36.35711 27.56093 38059 ft 403 kts 312°
2026-05-06 16:49 36.39533 27.50998 38060 ft 402 kts 312°
2026-05-06 16:50 36.43344 27.45910 38055 ft 402 kts 312°
2026-05-06 16:50 36.47155 27.40813 38064 ft 402 kts 312°
2026-05-06 16:51 36.50963 27.35713 38083 ft 402 kts 313°
2026-05-06 16:51 36.54767 27.30611 38077 ft 402 kts 312°
2026-05-06 16:52 36.58564 27.25510 38070 ft 402 kts 312°
2026-05-06 16:52 36.62324 27.20450 38076 ft 401 kts 312°
2026-05-06 16:53 36.66112 27.15321 38063 ft 400 kts 310°
2026-05-06 16:53 36.69065 27.09472 38069 ft 402 kts 294°
2026-05-06 16:54 36.71263 27.03009 38081 ft 408 kts 294°
2026-05-06 16:54 36.73492 26.96494 38085 ft 413 kts 294°
2026-05-06 16:55 36.75767 26.89897 38080 ft 416 kts 295°
2026-05-06 16:55 36.78050 26.83282 38069 ft 414 kts 294°
2026-05-06 16:56 36.80318 26.76698 38073 ft 412 kts 294°
2026-05-06 16:56 36.82573 26.70136 38083 ft 410 kts 294°
2026-05-06 16:57 36.84820 26.63587 38095 ft 412 kts 294°
2026-05-06 16:57 36.87093 26.56969 38093 ft 416 kts 294°
2026-05-06 16:58 36.89371 26.50311 38090 ft 419 kts 294°
2026-05-06 16:58 36.91656 26.43596 38087 ft 420 kts 294°
2026-05-06 16:59 36.93945 26.36854 38086 ft 421 kts 294°
2026-05-06 16:59 36.96220 26.30152 38086 ft 421 kts 294°
2026-05-06 17:00 36.98501 26.23410 38074 ft 420 kts 294°
2026-05-06 17:00 37.00787 26.16669 38090 ft 420 kts 294°
2026-05-06 17:01 37.03052 26.09983 38098 ft 419 kts 294°
2026-05-06 17:01 37.05321 26.03276 38082 ft 418 kts 294°
2026-05-06 17:02 37.07584 25.96569 38083 ft 417 kts 294°
2026-05-06 17:02 37.09839 25.89871 38079 ft 417 kts 294°
2026-05-06 17:03 37.12088 25.83177 38082 ft 416 kts 294°
2026-05-06 17:03 37.13214 25.79821 37685 ft 422 kts 294°
2026-05-06 17:03 37.14353 25.76422 37193 ft 422 kts 294°
2026-05-06 17:03 37.15485 25.73039 36646 ft 419 kts 294°
2026-05-06 17:04 37.16611 25.69670 36034 ft 417 kts 294°
2026-05-06 17:04 37.17728 25.66323 35405 ft 415 kts 294°
2026-05-06 17:04 37.18843 25.62982 34743 ft 415 kts 294°
2026-05-06 17:04 37.19944 25.59681 34114 ft 416 kts 294°
2026-05-06 17:05 37.21062 25.56325 33365 ft 416 kts 294°
2026-05-06 17:05 37.22178 25.52967 32656 ft 416 kts 294°
2026-05-06 17:05 37.23288 25.49611 31997 ft 415 kts 293°
2026-05-06 17:05 37.24375 25.46269 31367 ft 414 kts 293°
2026-05-06 17:06 37.25457 25.42920 30657 ft 414 kts 293°
2026-05-06 17:06 37.26539 25.39571 29878 ft 416 kts 293°
2026-05-06 17:06 37.27261 25.37338 29293 ft 418 kts 293°
2026-05-06 17:06 37.28620 25.32783 27974 ft 424 kts 290°
2026-05-06 17:07 37.29257 25.30410 27378 ft 425 kts 290°
2026-05-06 17:07 37.30171 25.26905 26468 ft 428 kts 290°
2026-05-06 17:07 37.31098 25.23341 25653 ft 428 kts 290°
2026-05-06 17:07 37.32026 25.19809 25027 ft 422 kts 291°
2026-05-06 17:08 37.32960 25.16294 24397 ft 427 kts 291°
2026-05-06 17:08 37.33924 25.12696 23714 ft 437 kts 291°
2026-05-06 17:08 37.34888 25.09083 22942 ft 433 kts 291°
2026-05-06 17:08 37.35967 25.05592 22246 ft 424 kts 301°
2026-05-06 17:09 37.37628 25.02670 21524 ft 415 kts 313°
2026-05-06 17:09 37.39831 25.00329 20745 ft 412 kts 325°
2026-05-06 17:09 37.42194 24.98317 20049 ft 408 kts 326°
2026-05-06 17:09 37.44549 24.96360 19410 ft 404 kts 326°
2026-05-06 17:10 37.46878 24.94429 18785 ft 399 kts 326°
2026-05-06 17:10 37.49187 24.92503 18118 ft 396 kts 326°
2026-05-06 17:10 37.51470 24.90584 17427 ft 393 kts 326°
2026-05-06 17:10 37.53733 24.88671 16785 ft 389 kts 326°
2026-05-06 17:11 37.55961 24.86779 16156 ft 385 kts 326°
2026-05-06 17:11 37.58167 24.84900 15542 ft 381 kts 326°
2026-05-06 17:11 37.60351 24.83037 14941 ft 378 kts 326°
2026-05-06 17:11 37.62522 24.81184 14350 ft 375 kts 326°
2026-05-06 17:12 37.64676 24.79344 13728 ft 369 kts 326°
2026-05-06 17:12 37.66795 24.77532 13084 ft 370 kts 326°
2026-05-06 17:12 37.68906 24.75726 12468 ft 370 kts 326°
2026-05-06 17:12 37.71038 24.73902 11864 ft 372 kts 326°
2026-05-06 17:13 37.73221 24.72033 11361 ft 374 kts 326°
2026-05-06 17:13 37.75308 24.70244 11216 ft 361 kts 326°
2026-05-06 17:13 37.77348 24.68494 11055 ft 347 kts 326°
2026-05-06 17:13 37.79305 24.66813 10895 ft 334 kts 326°
2026-05-06 17:14 37.81202 24.65181 10753 ft 322 kts 326°
2026-05-06 17:14 37.83025 24.63613 10617 ft 311 kts 326°
2026-05-06 17:14 37.84765 24.62116 10490 ft 301 kts 326°
2026-05-06 17:14 37.86470 24.60649 10364 ft 291 kts 326°
2026-05-06 17:15 37.88123 24.59226 10243 ft 282 kts 326°
2026-05-06 17:15 37.89723 24.57847 10130 ft 274 kts 325°
2026-05-06 17:15 37.91282 24.56504 9906 ft 269 kts 325°
2026-05-06 17:15 37.92831 24.55169 9618 ft 268 kts 326°
2026-05-06 17:16 37.94346 24.53864 9342 ft 266 kts 325°
2026-05-06 17:16 37.95869 24.52549 9026 ft 265 kts 325°
2026-05-06 17:16 37.97380 24.51243 8715 ft 264 kts 325°
2026-05-06 17:16 37.98885 24.49923 8426 ft 262 kts 322°
2026-05-06 17:17 38.00052 24.48152 8078 ft 265 kts 299°
2026-05-06 17:17 38.00925 24.46104 7784 ft 264 kts 299°
2026-05-06 17:17 38.01810 24.44059 7494 ft 263 kts 300°
2026-05-06 17:17 38.02697 24.42027 7210 ft 262 kts 300°
2026-05-06 17:18 38.03578 24.40013 6936 ft 261 kts 300°
2026-05-06 17:18 38.04449 24.38025 6662 ft 260 kts 299°
2026-05-06 17:18 38.05325 24.36025 6389 ft 259 kts 299°
2026-05-06 17:18 38.06193 24.34028 6098 ft 258 kts 299°
2026-05-06 17:19 38.07057 24.32038 5840 ft 256 kts 298°
2026-05-06 17:19 38.07912 24.30065 5569 ft 256 kts 298°
2026-05-06 17:19 38.08753 24.28123 5363 ft 243 kts 298°
2026-05-06 17:19 38.09538 24.26323 5258 ft 225 kts 298°
2026-05-06 17:20 38.10273 24.24652 5118 ft 209 kts 298°
2026-05-06 17:20 38.10984 24.23035 4656 ft 209 kts 298°
2026-05-06 17:20 38.11680 24.21448 4366 ft 203 kts 297°
2026-05-06 17:20 38.12350 24.19919 4143 ft 197 kts 298°
2026-05-06 17:21 38.13006 24.18421 4064 ft 198 kts 298°
2026-05-06 17:21 38.13533 24.16796 3955 ft 202 kts 277°
2026-05-06 17:21 38.13379 24.15046 3874 ft 201 kts 246°
2026-05-06 17:21 38.12569 24.13628 3811 ft 198 kts 223°
2026-05-06 17:22 38.11499 24.12532 3721 ft 197 kts 217°
2026-05-06 17:22 38.10411 24.11499 3618 ft 194 kts 217°
2026-05-06 17:22 38.09329 24.10484 3456 ft 193 kts 217°
2026-05-06 17:22 38.08276 24.09492 3267 ft 187 kts 217°
2026-05-06 17:23 38.07246 24.08523 3081 ft 181 kts 216°
2026-05-06 17:23 38.06240 24.07580 3027 ft 180 kts 216°
2026-05-06 17:23 38.05232 24.06623 2784 ft 180 kts 217°
2026-05-06 17:23 38.04266 24.05700 2553 ft 172 kts 216°
2026-05-06 17:24 38.03325 24.04803 2338 ft 165 kts 216°
2026-05-06 17:24 38.02423 24.03941 2108 ft 159 kts 216°
2026-05-06 17:24 38.01541 24.03100 1904 ft 158 kts 215°
2026-05-06 17:24 38.00669 24.02267 1710 ft 159 kts 215°
2026-05-06 17:25 37.99797 24.01435 1493 ft 155 kts 216°
2026-05-06 17:25 37.98954 24.00629 1293 ft 150 kts 216°
2026-05-06 17:25 37.98122 23.99835 1083 ft 149 kts 217°
2026-05-06 17:25 37.97289 23.99038 917 ft 150 kts 216°
2026-05-06 17:26 37.96452 23.98237 665 ft 149 kts 217°
2026-05-06 17:26 37.95628 23.97445 457 ft 152 kts 215°
2026-05-06 17:26 37.94782 23.96627 275 ft 150 kts 216°
2026-05-06 17:26 37.94039 23.95924 276 ft 112 kts 216°
2026-05-06 17:27 37.93533 23.95443 280 ft 69 kts 217°
2026-05-06 17:27 37.93256 23.95175 284 ft 37 kts 224°
2026-05-06 17:27 37.93150 23.94966 284 ft 23 kts 248°
2026-05-06 17:27 37.93111 23.94845 285 ft 13 kts 247°
2026-05-06 17:28 37.93081 23.94757 285 ft 10 kts 245°
2026-05-06 17:28 37.93065 23.94672 286 ft 10 kts 285°
2026-05-06 17:28 37.93108 23.94629 286 ft 9 kts 11°
2026-05-06 17:28 37.93160 23.94670 285 ft 9 kts 34°
2026-05-06 17:29 37.93219 23.94725 285 ft 12 kts 38°
2026-05-06 17:29 37.93294 23.94787 284 ft 14 kts
2026-05-06 17:29 37.93364 23.94749 284 ft 9 kts 11°
2026-05-06 17:29 37.93411 23.94786 284 ft 0 kts 36°
2026-05-06 17:30 37.93428 23.94804 287 ft 8 kts 42°
2026-05-06 17:30 37.93485 23.94800 286 ft 8 kts 318°
2026-05-06 17:30 37.93515 23.94757 283 ft 0 kts 310°